Regional Weather Roundup
Issued by NWS

Home | Current Version | Previous Version | Text Only | Print | Product List | Glossary Off
Versions: 1 2 3 4 5 6 7 8 9 10 11 12 13 14 15 16 17 18 19 20 21 22 23 24 25 26 27

000
ASUS45 KBOU 280007
RWRCO

WEATHER ROUNDUP FOR COLORADO
NATIONAL WEATHER SERVICE DENVER/BOULDER CO
600 PM MDT SAT AUG 27 2016

NOTE: "FAIR" INDICATES FEW OR NO CLOUDS BELOW 12000 FEET WITH NO
SIGNIFICANT WEATHER AND/OR OBSTRUCTIONS TO VISIBILITY.

COZ001>005-013-030-031-280100-
...NORTHWEST COLORADO...

CITY           SKY/WX    TMP DP  RH WIND       PRES   REMARKS
CRAIG          FAIR      78  27  15 W9        30.13F
HAYDEN         FAIR      73  27  17 W14       30.16S
MEEKER         FAIR      73  40  30 S8        30.17R
MOUNT WERNER   NOT AVBL
STEAMBOAT SPGS FAIR      74  30  19 W10G18    30.18R
WALDEN         FAIR      66  27  22 W10       30.27S
$$

COZ006>008-011-280100-
...WEST CENTRAL VALLEYS...

CITY           SKY/WX    TMP DP  RH WIND       PRES   REMARKS
GRAND JUNCTION FAIR      76  44  32 SE12      30.10R
MONTROSE       PTSUNNY   68  47  46 S14       30.22R
EAGLE          MOSUNNY   73  34  23 SW14G20   30.19S
RIFLE          FAIR      77  45  32 W10       30.12R
DELTA          NOT AVBL
NUCLA          CLOUDY   N/A N/A N/A E8        30.27R
$$

COZ017>023-064>068-280100-
...SOUTHWEST COLORADO...

CITY           SKY/WX    TMP DP  RH WIND       PRES   REMARKS
DURANGO        PTSUNNY   62  46  55 S20G32    30.25R
CORTEZ         FAIR      66  51  58 S13       30.20R
PAGOSA SPRINGS CLOUDY    64  42  45 S15G22    30.34R
TELLURIDE      RAIN      48  46  94 CALM      30.42S
WOLF CREEK PAS TSTM      37  37 100 SW20G26   30.57R VSB 1/2
$$

COZ009-010-012-014-032>034-037-058>063-280100-
...CENTRAL COLORADO...

CITY           SKY/WX    TMP DP  RH WIND       PRES   REMARKS
ASPEN          PTSUNNY   63  41  44 S12       30.28R
BUENA VISTA    RAIN      60  40  47 S15G28    30.30R
COPPER MTN     FAIR      46  34  61 CALM      30.56R
BERTHOUD PASS  CLOUDY    45  32  61 W10       30.57R
COTTONWOOD PAS CLOUDY    59  34  38 SW10G17   30.42R
GUNNISON       FAIR      55  46  71 SE5       30.36S
KREMMLING      FAIR      72  28  20 SW6       30.22S
LEADVILLE      FAIR      54  33  45 N6        30.40S
MONARCH PASS   FOG       37  37 100 W22G29    30.66R VSB<1/4
SALIDA         FAIR      65  41  41 W17G30    30.35R
SUNLIGHT       CLOUDY    55  41  58 CALM      30.50R
WILKERSON PASS CLOUDY    54  32  43 SW5       30.52S
$$

COZ069>075-280100-
...SAN LUIS VALLEY/SANGRE DE CRISTO MOUNTAINS...

CITY           SKY/WX    TMP DP  RH WIND       PRES   REMARKS
ALAMOSA        CLOUDY    69  39  33 SE10      30.23R
LA VETA PASS   FAIR      59  34  38 S5        30.42S
SAGUACHE       PTSUNNY   57  45  62 N17G24    30.31S
$$

COZ035-036-038>040-280100-
...NORTHERN COLORADO FRONT RANGE...

CITY           SKY/WX    TMP DP  RH WIND       PRES   REMARKS
DENVER INTL AP PTSUNNY   82  36  19 E13       30.06S
DMNS CITY PARK   N/A     80  36  21 E5        30.05S
AURORA         PTSUNNY   80  35  19 SE7       30.08F
FRONT RANGE AP PTSUNNY   82  36  18 E9        30.08S
ERIE MUNI ARPT NOT AVBL
BOULDER MUN AP FAIR      79  36  21 SE7       30.04S
CENTENNIAL     PTSUNNY   78  33  19 S7        30.10R
BROOMFIELD     PTSUNNY   81  32  17 SE7       30.08S
FORT COLLINS   FAIR      84  36  17 SE10      29.99S
LONGMONT       FAIR      85  33  16 S6        30.04S
$$

COZ041-046-047-076>085-087-088-280100-
...PIKES PEAK/PALMER DIVIDE AND SOUTHERN FOOTHILLS...

CITY           SKY/WX    TMP DP  RH WIND       PRES   REMARKS
COLO. SPRINGS  PTSUNNY   79  32  18 VRB3      30.13R
A. F. ACADEMY  PTSUNNY   73  37  27 N6        30.15R
SCHRIEVER AFB  NOT AVBL
ELLICOTT       NOT AVBL
FALCON         FAIR      73  35  24 CALM      30.19S
FORT CARSON    CLOUDY    76  43  30 SE6       30.10R
LIMON          FAIR      75  48  38 SE15      30.10R
MONUMENT HILL  FAIR      70  34  26 SE6       30.21S
TRINIDAD       FAIR      79  38  22 S16       30.10R
$$

COZ042>045-048>051-090-091-280100-
...NORTHEAST COLORADO...

CITY           SKY/WX    TMP DP  RH WIND       PRES   REMARKS
GREELEY ARPT   FAIR      82  41  23 SE10      30.03S
AKRON          FAIR      79  48  33 SE12      30.05S
BURLINGTON     FAIR      78  44  29 SE15      30.03F
WRAY           FAIR      82  52  34 S12       30.01F
STERLING       FAIR      81  54  39 S13       30.00R
HOLYOKE        FAIR      81  55  41 SE12      30.02S
FORT MORGAN    FAIR      84  31  15 E5        30.03S
$$

COZ086-089-092>099-280100-
...SOUTHEAST COLORADO...

CITY           SKY/WX    TMP DP  RH WIND       PRES   REMARKS
PUEBLO         FAIR      88  36  15 S5        30.00S
LA JUNTA       FAIR      88  46  23 E14       29.99R
LAMAR          FAIR      88  48  25 NE6       29.95S
SPRINGFIELD      N/A     79  58  48 S18       30.03R
$$




USA.gov is the U.S. government's official web portal to all federal, state and local government web resources and services.